Location: ????????
(60.5616°N, 46.8254°E)
Time: 11:02:38
(UTC+00:00)

COSMOS 2428 - Pass Details

Date: 18 February 2020
Orbit: 846 x 856 km, 70.9° (Epoch: 09 April)

Event Time Altitude Azimuth Distance (km) Brightness Sun altitude
Exits shadow 22:58:42 27° 75° (ENE) 1,588 4.4 -36.8°
Drops below altitude 10° 23:01:55 10° 48° (NE) 2,502 5.9 -36.6°
Sets 23:04:34 0° 40° (NE) 3,442 6.9 -36.4°
